Time,TemperatureF,DewpointF,PressureIn,WindDirection,WindDirectionDegrees,WindSpeedMPH,WindSpeedGustMPH,Humidity,HourlyPrecipIn,Conditions,Clouds,dailyrainin,SoftwareType,DateUTC
2013-01-12 00:09:00,20.4,10.0,30.15,WNW,286,0.0,-999.0,65,-99.99,,,0.00,weatherlink.com 1.10,2013-01-12 07:09:00,
2013-01-12 00:24:00,19.8,10.0,30.15,WNW,286,0.0,-999.0,65,-99.99,,,0.00,weatherlink.com 1.10,2013-01-12 07:24:00,
2013-01-12 00:39:00,19.3,10.0,30.15,WNW,286,0.0,-999.0,67,-99.99,,,0.00,weatherlink.com 1.10,2013-01-12 07:39:00,
2013-01-12 00:54:00,19.0,10.0,30.15,WNW,286,0.0,-999.0,67,-99.99,,,0.00,weatherlink.com 1.10,2013-01-12 07:54:00,
2013-01-12 01:08:00,18.4,10.0,30.16,WNW,286,0.0,-999.0,69,-99.99,,,0.00,weatherlink.com 1.10,2013-01-12 08:08:00,
2013-01-12 01:23:00,18.2,10.0,30.16,WNW,286,0.0,-999.0,69,-99.99,,,0.00,weatherlink.com 1.10,2013-01-12 08:23:00,
2013-01-12 01:39:00,18.0,9.0,30.16,WNW,286,0.0,-999.0,69,-99.99,,,0.00,weatherlink.com 1.10,2013-01-12 08:39:00,
2013-01-12 01:54:00,17.7,9.0,30.16,WNW,286,0.0,-999.0,70,-99.99,,,0.00,weatherlink.com 1.10,2013-01-12 08:54:00,
2013-01-12 02:09:00,17.2,9.0,30.16,WNW,286,0.0,-999.0,71,-99.99,,,0.00,weatherlink.com 1.10,2013-01-12 09:09:00,
2013-01-12 02:24:00,17.0,9.0,30.16,WNW,286,0.0,-999.0,72,-99.99,,,0.00,weatherlink.com 1.10,2013-01-12 09:24:00,
2013-01-12 02:39:00,17.8,10.0,30.16,WNW,286,0.0,-999.0,71,-99.99,,,0.00,weatherlink.com 1.10,2013-01-12 09:39:00,
2013-01-12 02:54:00,18.8,10.0,30.17,WNW,286,0.0,-999.0,68,-99.99,,,0.00,weatherlink.com 1.10,2013-01-12 09:54:00,
2013-01-12 03:09:00,19.3,10.0,30.17,WNW,286,0.0,-999.0,67,-99.99,,,0.00,weatherlink.com 1.10,2013-01-12 10:09:00,
2013-01-12 03:24:00,19.2,10.0,30.17,WNW,286,0.0,-999.0,67,-99.99,,,0.00,weatherlink.com 1.10,2013-01-12 10:24:00,
2013-01-12 03:39:00,19.3,9.0,30.17,WNW,286,0.0,-999.0,65,-99.99,,,0.00,weatherlink.com 1.10,2013-01-12 10:39:00,
2013-01-12 03:54:00,19.1,9.0,30.18,WNW,286,0.0,-999.0,65,-99.99,,,0.00,weatherlink.com 1.10,2013-01-12 10:54:00,
2013-01-12 04:09:00,18.7,9.0,30.18,WNW,286,0.0,-999.0,65,-99.99,,,0.00,weatherlink.com 1.10,2013-01-12 11:09:00,
2013-01-12 04:24:00,18.1,8.0,30.18,WNW,286,0.0,-999.0,66,-99.99,,,0.00,weatherlink.com 1.10,2013-01-12 11:24:00,
2013-01-12 04:39:00,17.2,9.0,30.18,WNW,286,0.0,-999.0,70,-99.99,,,0.00,weatherlink.com 1.10,2013-01-12 11:39:00,
2013-01-12 04:54:00,16.8,9.0,30.18,WNW,286,0.0,-999.0,70,-99.99,,,0.00,weatherlink.com 1.10,2013-01-12 11:54:00,
2013-01-12 05:09:00,16.1,9.0,30.19,WNW,286,0.0,-999.0,72,-99.99,,,0.00,weatherlink.com 1.10,2013-01-12 12:09:00,
2013-01-12 05:24:00,15.8,8.0,30.20,WNW,286,0.0,-999.0,72,-99.99,,,0.00,weatherlink.com 1.10,2013-01-12 12:24:00,
2013-01-12 05:39:00,15.4,8.0,30.20,WNW,286,0.0,-999.0,73,-99.99,,,0.00,weatherlink.com 1.10,2013-01-12 12:39:00,
2013-01-12 05:54:00,15.1,8.0,30.22,WNW,286,0.0,-999.0,74,-99.99,,,0.00,weatherlink.com 1.10,2013-01-12 12:54:00,
2013-01-12 06:09:00,15.0,8.0,30.22,WNW,286,0.0,-999.0,73,-99.99,,,0.00,weatherlink.com 1.10,2013-01-12 13:09:00,
2013-01-12 06:24:00,15.2,8.0,30.22,WNW,286,0.0,-999.0,72,-99.99,,,0.00,weatherlink.com 1.10,2013-01-12 13:24:00,
2013-01-12 06:39:00,15.3,7.0,30.23,WNW,286,0.0,-999.0,71,-99.99,,,0.00,weatherlink.com 1.10,2013-01-12 13:39:00,
2013-01-12 06:54:00,15.4,8.0,30.24,WNW,286,0.0,-999.0,71,-99.99,,,0.00,weatherlink.com 1.10,2013-01-12 13:54:00,
2013-01-12 07:09:00,15.1,7.0,30.24,WNW,286,0.0,-999.0,71,-99.99,,,0.00,weatherlink.com 1.10,2013-01-12 14:09:00,
2013-01-12 07:24:00,15.7,7.0,30.25,WNW,286,0.0,-999.0,69,-99.99,,,0.00,weatherlink.com 1.10,2013-01-12 14:24:00,
2013-01-12 07:39:00,16.3,7.0,30.26,WNW,286,0.0,-999.0,68,-99.99,,,0.00,weatherlink.com 1.10,2013-01-12 14:39:00,
2013-01-12 07:54:00,17.3,8.0,30.26,WNW,286,0.0,-999.0,68,-99.99,,,0.00,weatherlink.com 1.10,2013-01-12 14:54:00,
2013-01-12 08:09:00,19.5,12.0,30.27,WNW,286,0.0,-999.0,74,-99.99,,,0.00,weatherlink.com 1.10,2013-01-12 15:09:00,
2013-01-12 08:24:00,23.9,11.0,30.28,WNW,286,0.0,-999.0,59,-99.99,,,0.00,weatherlink.com 1.10,2013-01-12 15:24:00,
2013-01-12 08:39:00,27.1,11.0,30.28,West,264,3.0,-999.0,51,-99.99,,,0.00,weatherlink.com 1.10,2013-01-12 15:39:00,
2013-01-12 08:54:00,28.1,11.0,30.29,WSW,252,1.0,-999.0,49,-99.99,,,0.00,weatherlink.com 1.10,2013-01-12 15:54:00,
2013-01-12 09:09:00,28.7,10.0,30.29,WNW,298,5.0,-999.0,46,-99.99,,,0.00,weatherlink.com 1.10,2013-01-12 16:09:00,
2013-01-12 09:24:00,29.1,11.0,30.29,West,278,1.0,-999.0,47,-99.99,,,0.00,weatherlink.com 1.10,2013-01-12 16:24:00,
2013-01-12 09:39:00,31.0,10.0,30.29,WSW,252,0.0,-999.0,41,-99.99,,,0.00,weatherlink.com 1.10,2013-01-12 16:39:00,
2013-01-12 09:54:00,31.0,10.0,30.30,West,263,2.0,-999.0,42,-99.99,,,0.00,weatherlink.com 1.10,2013-01-12 16:54:00,
2013-01-12 10:09:00,30.4,10.0,30.30,NNW,330,1.0,-999.0,43,-99.99,,,0.00,weatherlink.com 1.10,2013-01-12 17:09:00,
2013-01-12 10:24:00,30.7,10.0,30.31,WSW,248,4.0,-999.0,42,-99.99,,,0.00,weatherlink.com 1.10,2013-01-12 17:24:00,
2013-01-12 10:39:00,30.6,10.0,30.30,SW,215,4.0,-999.0,42,-99.99,,,0.00,weatherlink.com 1.10,2013-01-12 17:39:00,
2013-01-12 10:54:00,30.2,9.0,30.31,WSW,254,4.0,-999.0,41,-99.99,,,0.00,weatherlink.com 1.10,2013-01-12 17:54:00,
2013-01-12 11:09:00,30.2,10.0,30.30,West,272,0.0,-999.0,43,-99.99,,,0.00,weatherlink.com 1.10,2013-01-12 18:09:00,
2013-01-12 11:24:00,31.5,10.0,30.29,SSW,210,2.0,-999.0,41,-99.99,,,0.00,weatherlink.com 1.10,2013-01-12 18:24:00,
2013-01-12 11:40:00,32.6,9.0,30.29,SE,144,0.0,-999.0,38,-99.99,,,0.00,weatherlink.com 1.10,2013-01-12 18:40:00,
2013-01-12 11:55:00,33.2,8.0,30.27,SSW,201,2.0,-999.0,35,-99.99,,,0.00,weatherlink.com 1.10,2013-01-12 18:55:00,
2013-01-12 12:10:00,32.5,8.0,30.27,West,261,0.0,-999.0,36,-99.99,,,0.00,weatherlink.com 1.10,2013-01-12 19:10:00,
2013-01-12 12:25:00,31.0,7.0,30.27,WNW,296,6.0,-999.0,37,-99.99,,,0.00,weatherlink.com 1.10,2013-01-12 19:25:00,
2013-01-12 12:40:00,30.5,7.0,30.26,West,273,5.0,-999.0,37,-99.99,,,0.00,weatherlink.com 1.10,2013-01-12 19:40:00,
2013-01-12 12:55:00,30.8,8.0,30.26,WNW,283,2.0,-999.0,38,-99.99,,,0.00,weatherlink.com 1.10,2013-01-12 19:55:00,
2013-01-12 13:10:00,31.5,8.0,30.26,WNW,300,0.0,-999.0,38,-99.99,,,0.00,weatherlink.com 1.10,2013-01-12 20:10:00,
2013-01-12 13:25:00,30.3,9.0,30.27,WNW,297,4.0,-999.0,40,-99.99,,,0.00,weatherlink.com 1.10,2013-01-12 20:25:00,
2013-01-12 13:40:00,29.6,9.0,30.27,West,271,5.0,-999.0,42,-99.99,,,0.00,weatherlink.com 1.10,2013-01-12 20:40:00,
2013-01-12 13:55:00,30.1,7.0,30.27,WNW,289,0.0,-999.0,38,-99.99,,,0.00,weatherlink.com 1.10,2013-01-12 20:55:00,
2013-01-12 14:10:00,31.6,8.0,30.27,West,267,4.0,-999.0,37,-99.99,,,0.00,weatherlink.com 1.10,2013-01-12 21:10:00,
2013-01-12 14:25:00,32.2,7.0,30.28,North,360,1.0,-999.0,35,-99.99,,,0.00,weatherlink.com 1.10,2013-01-12 21:25:00,
2013-01-12 14:40:00,30.7,5.0,30.28,WSW,257,1.0,-999.0,34,-99.99,,,0.00,weatherlink.com 1.10,2013-01-12 21:40:00,
2013-01-12 14:55:00,31.8,6.0,30.28,WNW,284,0.0,-999.0,33,-99.99,,,0.00,weatherlink.com 1.10,2013-01-12 21:55:00,
2013-01-12 15:10:00,32.3,6.0,30.29,West,280,0.0,-999.0,33,-99.99,,,0.00,weatherlink.com 1.10,2013-01-12 22:10:00,
2013-01-12 15:25:00,31.5,5.0,30.29,West,268,0.0,-999.0,33,-99.99,,,0.00,weatherlink.com 1.10,2013-01-12 22:25:00,
2013-01-12 15:40:00,31.0,4.0,30.30,West,281,5.0,-999.0,32,-99.99,,,0.00,weatherlink.com 1.10,2013-01-12 22:40:00,
2013-01-12 15:55:00,30.8,3.0,30.30,WNW,286,6.0,-999.0,31,-99.99,,,0.00,weatherlink.com 1.10,2013-01-12 22:55:00,
2013-01-12 16:10:00,30.5,4.0,30.30,WNW,284,0.0,-999.0,32,-99.99,,,0.00,weatherlink.com 1.10,2013-01-12 23:10:00,
2013-01-12 16:25:00,29.8,4.0,30.30,WNW,294,5.0,-999.0,34,-99.99,,,0.00,weatherlink.com 1.10,2013-01-12 23:25:00,
2013-01-12 16:40:00,29.4,5.0,30.30,NW,308,1.0,-999.0,35,-99.99,,,0.00,weatherlink.com 1.10,2013-01-12 23:40:00,
2013-01-12 16:55:00,28.9,4.0,30.31,WNW,301,6.0,-999.0,34,-99.99,,,0.00,weatherlink.com 1.10,2013-01-12 23:55:00,
2013-01-12 17:13:00,28.2,4.0,30.32,WNW,296,2.0,-999.0,36,-99.99,,,0.00,weatherlink.com 1.10,2013-01-13 00:13:00,
2013-01-12 17:25:00,27.6,6.0,30.32,WNW,288,0.0,-999.0,39,-99.99,,,0.00,weatherlink.com 1.10,2013-01-13 00:25:00,
2013-01-12 17:40:00,26.9,5.0,30.32,West,271,2.0,-999.0,40,-99.99,,,0.00,weatherlink.com 1.10,2013-01-13 00:40:00,
2013-01-12 17:55:00,26.4,5.0,30.32,West,281,0.0,-999.0,40,-99.99,,,0.00,weatherlink.com 1.10,2013-01-13 00:55:00,
2013-01-12 18:10:00,25.6,5.0,30.32,West,281,0.0,-999.0,42,-99.99,,,0.00,weatherlink.com 1.10,2013-01-13 01:10:00,
2013-01-12 18:25:00,24.9,5.0,30.34,West,281,0.0,-999.0,43,-99.99,,,0.00,weatherlink.com 1.10,2013-01-13 01:25:00,
2013-01-12 18:40:00,23.8,6.0,30.34,West,281,0.0,-999.0,46,-99.99,,,0.00,weatherlink.com 1.10,2013-01-13 01:40:00,
2013-01-12 18:55:00,22.7,6.0,30.35,West,281,0.0,-999.0,49,-99.99,,,0.00,weatherlink.com 1.10,2013-01-13 01:55:00,
2013-01-12 19:10:00,21.8,6.0,30.35,West,281,0.0,-999.0,51,-99.99,,,0.00,weatherlink.com 1.10,2013-01-13 02:10:00,
2013-01-12 19:25:00,21.1,6.0,30.36,West,281,0.0,-999.0,53,-99.99,,,0.00,weatherlink.com 1.10,2013-01-13 02:25:00,
2013-01-12 19:40:00,20.4,7.0,30.36,West,281,0.0,-999.0,56,-99.99,,,0.00,weatherlink.com 1.10,2013-01-13 02:40:00,
2013-01-12 19:55:00,19.7,6.0,30.36,West,281,0.0,-999.0,56,-99.99,,,0.00,weatherlink.com 1.10,2013-01-13 02:55:00,
2013-01-12 20:10:00,19.3,7.0,30.36,West,281,0.0,-999.0,58,-99.99,,,0.00,weatherlink.com 1.10,2013-01-13 03:10:00,
2013-01-12 20:25:00,19.1,6.0,30.37,West,281,0.0,-999.0,58,-99.99,,,0.00,weatherlink.com 1.10,2013-01-13 03:25:00,
2013-01-12 20:40:00,18.9,6.0,30.37,West,281,0.0,-999.0,58,-99.99,,,0.00,weatherlink.com 1.10,2013-01-13 03:40:00,
2013-01-12 20:55:00,19.1,6.0,30.38,West,281,0.0,-999.0,57,-99.99,,,0.00,weatherlink.com 1.10,2013-01-13 03:55:00,
2013-01-12 21:10:00,18.9,6.0,30.38,West,281,0.0,-999.0,57,-99.99,,,0.00,weatherlink.com 1.10,2013-01-13 04:10:00,
2013-01-12 21:25:00,18.6,6.0,30.38,West,281,0.0,-999.0,57,-99.99,,,0.00,weatherlink.com 1.10,2013-01-13 04:25:00,
2013-01-12 21:40:00,18.6,6.0,30.39,West,281,0.0,-999.0,57,-99.99,,,0.00,weatherlink.com 1.10,2013-01-13 04:40:00,
2013-01-12 21:55:00,18.9,5.0,30.38,West,281,0.0,-999.0,56,-99.99,,,0.00,weatherlink.com 1.10,2013-01-13 04:55:00,
2013-01-12 22:10:00,18.7,6.0,30.39,West,281,0.0,-999.0,57,-99.99,,,0.00,weatherlink.com 1.10,2013-01-13 05:10:00,
2013-01-12 22:25:00,18.4,5.0,30.39,West,281,0.0,-999.0,57,-99.99,,,0.00,weatherlink.com 1.10,2013-01-13 05:25:00,
2013-01-12 22:40:00,18.4,5.0,30.40,West,281,0.0,-999.0,57,-99.99,,,0.00,weatherlink.com 1.10,2013-01-13 05:40:00,
2013-01-12 22:55:00,18.5,5.0,30.40,West,281,0.0,-999.0,57,-99.99,,,0.00,weatherlink.com 1.10,2013-01-13 05:55:00,
2013-01-12 23:10:00,18.0,6.0,30.41,West,281,0.0,-999.0,60,-99.99,,,0.00,weatherlink.com 1.10,2013-01-13 06:10:00,
2013-01-12 23:25:00,17.3,5.0,30.41,West,281,0.0,-999.0,60,-99.99,,,0.00,weatherlink.com 1.10,2013-01-13 06:25:00,
2013-01-12 23:40:00,16.7,6.0,30.42,West,281,0.0,-999.0,63,-99.99,,,0.00,weatherlink.com 1.10,2013-01-13 06:40:00,
2013-01-12 23:55:00,16.4,6.0,30.41,West,281,0.0,-999.0,64,-99.99,,,0.00,weatherlink.com 1.10,2013-01-13 06:55:00,